owner,sensor,date,latitude,longitude,vertical_datum,wind_speed,wind_to_direction,wind_speed_of_gust,qcFlag 
WAVCIS,ioos:station:WAVCIS:CSI06:1,2010-10-01T00:00:00Z,28.8667,-90.4833,10.0,5.999,332.0,,'11111222,11111222,99999999' 
WAVCIS,ioos:station:WAVCIS:CSI06:1,2010-10-01T01:00:00Z,28.8667,-90.4833,10.0,8.33,323.0,,'11111222,11111222,99999999' 
WAVCIS,ioos:station:WAVCIS:CSI06:1,2010-10-01T02:00:00Z,28.8667,-90.4833,10.0,9.44,324.0,,'11111222,11111222,99999999' 
WAVCIS,ioos:station:WAVCIS:CSI06:1,2010-10-01T03:00:00Z,28.8667,-90.4833,10.0,8.57,328.0,,'11111222,11111222,99999999' 
WAVCIS,ioos:station:WAVCIS:CSI06:1,2010-10-01T04:00:00Z,28.8667,-90.4833,10.0,6.457,347.0,,'11111222,11111222,99999999' 
WAVCIS,ioos:station:WAVCIS:CSI06:1,2010-10-01T05:00:00Z,28.8667,-90.4833,10.0,6.118,346.0,,'11111222,11111222,99999999' 
WAVCIS,ioos:station:WAVCIS:CSI06:1,2010-10-01T06:00:00Z,28.8667,-90.4833,10.0,5.171,354.0,,'11111222,11111222,99999999' 
WAVCIS,ioos:station:WAVCIS:CSI06:1,2010-10-01T07:00:00Z,28.8667,-90.4833,10.0,5.268,358.0,,'11111222,11111222,99999999' 
WAVCIS,ioos:station:WAVCIS:CSI06:1,2010-10-01T08:00:00Z,28.8667,-90.4833,10.0,5.032,1.0,,'11111222,11111222,99999999' 
WAVCIS,ioos:station:WAVCIS:CSI06:1,2010-10-01T09:00:00Z,28.8667,-90.4833,10.0,6.633,7.0,,'11111222,11111222,99999999' 
WAVCIS,ioos:station:WAVCIS:CSI06:1,2010-10-01T10:00:00Z,28.8667,-90.4833,10.0,7.18,9.0,,'11111222,11111222,99999999' 
WAVCIS,ioos:station:WAVCIS:CSI06:1,2010-10-01T11:00:00Z,28.8667,-90.4833,10.0,7.17,8.0,,'11111222,11111222,99999999' 
WAVCIS,ioos:station:WAVCIS:CSI06:1,2010-10-01T12:00:00Z,28.8667,-90.4833,10.0,7.87,8.0,,'11111222,11111222,99999999' 
WAVCIS,ioos:station:WAVCIS:CSI06:1,2010-10-01T13:00:00Z,28.8667,-90.4833,10.0,10.06,14.0,,'11111222,11111222,99999999' 
WAVCIS,ioos:station:WAVCIS:CSI06:1,2010-10-01T14:00:00Z,28.8667,-90.4833,10.0,9.08,20.0,,'11111222,11111222,99999999' 
WAVCIS,ioos:station:WAVCIS:CSI06:1,2010-10-01T15:00:00Z,28.8667,-90.4833,10.0,7.33,18.0,,'11111222,11111222,99999999' 
WAVCIS,ioos:station:WAVCIS:CSI06:1,2010-10-01T16:00:00Z,28.8667,-90.4833,10.0,6.843,26.0,,'11111222,11111222,99999999' 
WAVCIS,ioos:station:WAVCIS:CSI06:1,2010-10-01T17:00:00Z,28.8667,-90.4833,10.0,6.198,19.0,,'11111222,11111222,99999999' 
WAVCIS,ioos:station:WAVCIS:CSI06:1,2010-10-01T18:00:00Z,28.8667,-90.4833,10.0,5.007,20.0,,'11111222,11111222,99999999' 
WAVCIS,ioos:station:WAVCIS:CSI06:1,2010-10-01T19:00:00Z,28.8667,-90.4833,10.0,4.182,6.0,,'11111222,11111222,99999999' 
WAVCIS,ioos:station:WAVCIS:CSI06:1,2010-10-01T20:00:00Z,28.8667,-90.4833,10.0,1.929,341.0,,'11111222,11111222,99999999' 
WAVCIS,ioos:station:WAVCIS:CSI06:1,2010-10-01T21:00:00Z,28.8667,-90.4833,10.0,1.665,12.0,,'11111222,11111222,99999999' 
WAVCIS,ioos:station:WAVCIS:CSI06:1,2010-10-01T22:00:00Z,28.8667,-90.4833,10.0,1.829,283.0,,'11111222,11111222,99999999' 
WAVCIS,ioos:station:WAVCIS:CSI06:1,2010-10-01T23:00:00Z,28.8667,-90.4833,10.0,1.936,280.0,,'11111222,11111222,99999999' 
WAVCIS,ioos:station:WAVCIS:CSI06:1,2010-10-02T00:00:00Z,28.8667,-90.4833,10.0,0.331,341.0,,'11111222,11111222,99999999' 
WAVCIS,ioos:station:WAVCIS:CSI06:1,2010-10-02T01:00:00Z,28.8667,-90.4833,10.0,3.396,39.0,,'11111222,11111222,99999999' 
WAVCIS,ioos:station:WAVCIS:CSI06:1,2010-10-02T02:00:00Z,28.8667,-90.4833,10.0,5.403,12.0,,'11111222,11111222,99999999' 
WAVCIS,ioos:station:WAVCIS:CSI06:1,2010-10-02T03:00:00Z,28.8667,-90.4833,10.0,9.56,334.0,,'11111222,11111222,99999999' 
WAVCIS,ioos:station:WAVCIS:CSI06:1,2010-10-02T04:00:00Z,28.8667,-90.4833,10.0,5.88,355.0,,'11111222,11111222,99999999' 
WAVCIS,ioos:station:WAVCIS:CSI06:1,2010-10-02T05:00:00Z,28.8667,-90.4833,10.0,7.29,4.0,,'11111222,11111222,99999999' 
WAVCIS,ioos:station:WAVCIS:CSI06:1,2010-10-02T06:00:00Z,28.8667,-90.4833,10.0,9.78,9.0,,'11111222,11111222,99999999' 
WAVCIS,ioos:station:WAVCIS:CSI06:1,2010-10-02T07:00:00Z,28.8667,-90.4833,10.0,9.87,11.0,,'11111222,11111222,99999999' 
WAVCIS,ioos:station:WAVCIS:CSI06:1,2010-10-02T08:00:00Z,28.8667,-90.4833,10.0,8.14,9.0,,'11111222,11111222,99999999' 
WAVCIS,ioos:station:WAVCIS:CSI06:1,2010-10-02T09:00:00Z,28.8667,-90.4833,10.0,8.7,11.0,,'11111222,11111222,99999999' 
WAVCIS,ioos:station:WAVCIS:CSI06:1,2010-10-02T10:00:00Z,28.8667,-90.4833,10.0,9.26,13.0,,'11111222,11111222,99999999' 
WAVCIS,ioos:station:WAVCIS:CSI06:1,2010-10-02T11:00:00Z,28.8667,-90.4833,10.0,8.64,16.0,,'11111222,11111222,99999999' 
WAVCIS,ioos:station:WAVCIS:CSI06:1,2010-10-02T12:00:00Z,28.8667,-90.4833,10.0,9.08,22.0,,'11111222,11111222,99999999' 
WAVCIS,ioos:station:WAVCIS:CSI06:1,2010-10-02T13:00:00Z,28.8667,-90.4833,10.0,8.06,18.0,,'11111222,11111222,99999999' 
WAVCIS,ioos:station:WAVCIS:CSI06:1,2010-10-02T14:00:00Z,28.8667,-90.4833,10.0,8.02,19.0,,'11111222,11111222,99999999' 
WAVCIS,ioos:station:WAVCIS:CSI06:1,2010-10-02T15:00:00Z,28.8667,-90.4833,10.0,6.886,19.0,,'11111222,11111222,99999999' 
WAVCIS,ioos:station:WAVCIS:CSI06:1,2010-10-02T16:00:00Z,28.8667,-90.4833,10.0,6.032,21.0,,'11111222,11111222,99999999' 
WAVCIS,ioos:station:WAVCIS:CSI06:1,2010-10-02T17:00:00Z,28.8667,-90.4833,10.0,5.871,17.0,,'11111222,11111222,99999999' 
WAVCIS,ioos:station:WAVCIS:CSI06:1,2010-10-02T18:00:00Z,28.8667,-90.4833,10.0,7.16,15.0,,'11111222,11111222,99999999' 
WAVCIS,ioos:station:WAVCIS:CSI06:1,2010-10-02T19:00:00Z,28.8667,-90.4833,10.0,6.396,12.0,,'11111222,11111222,99999999' 
WAVCIS,ioos:station:WAVCIS:CSI06:1,2010-10-02T20:00:00Z,28.8667,-90.4833,10.0,5.768,13.0,,'11111222,11111222,99999999' 
WAVCIS,ioos:station:WAVCIS:CSI06:1,2010-10-02T21:00:00Z,28.8667,-90.4833,10.0,6.117,12.0,,'11111222,11111222,99999999' 
WAVCIS,ioos:station:WAVCIS:CSI06:1,2010-10-02T22:00:00Z,28.8667,-90.4833,10.0,5.404,6.0,,'11111222,11111222,99999999' 
WAVCIS,ioos:station:WAVCIS:CSI06:1,2010-10-02T23:00:00Z,28.8667,-90.4833,10.0,6.735,14.0,,'11111222,11111222,99999999' 
WAVCIS,ioos:station:WAVCIS:CSI06:1,2010-10-03T00:00:00Z,28.8667,-90.4833,10.0,4.953,14.0,,'11111222,11111222,99999999' 
WAVCIS,ioos:station:WAVCIS:CSI06:1,2010-10-03T01:00:00Z,28.8667,-90.4833,10.0,3.83,4.0,,'11111222,11111222,99999999' 
WAVCIS,ioos:station:WAVCIS:CSI06:1,2010-10-03T02:00:00Z,28.8667,-90.4833,10.0,2.966,352.0,,'11111222,11111222,99999999' 
WAVCIS,ioos:station:WAVCIS:CSI06:1,2010-10-03T03:00:00Z,28.8667,-90.4833,10.0,7.25,327.0,,'11111222,11111222,99999999' 
WAVCIS,ioos:station:WAVCIS:CSI06:1,2010-10-03T04:00:00Z,28.8667,-90.4833,10.0,5.759,348.0,,'11111222,11111222,99999999' 
WAVCIS,ioos:station:WAVCIS:CSI06:1,2010-10-03T05:00:00Z,28.8667,-90.4833,10.0,7.14,3.0,,'11111222,11111222,99999999' 
WAVCIS,ioos:station:WAVCIS:CSI06:1,2010-10-03T06:00:00Z,28.8667,-90.4833,10.0,10.58,11.0,,'11111222,11111222,99999999' 
WAVCIS,ioos:station:WAVCIS:CSI06:1,2010-10-03T07:00:00Z,28.8667,-90.4833,10.0,13.07,13.0,,'11111222,11111222,99999999' 
WAVCIS,ioos:station:WAVCIS:CSI06:1,2010-10-03T08:00:00Z,28.8667,-90.4833,10.0,13.04,18.0,,'11111222,11111222,99999999' 
WAVCIS,ioos:station:WAVCIS:CSI06:1,2010-10-03T09:00:00Z,28.8667,-90.4833,10.0,11.52,21.0,,'11111222,11111222,99999999' 
WAVCIS,ioos:station:WAVCIS:CSI06:1,2010-10-03T10:00:00Z,28.8667,-90.4833,10.0,11.91,21.0,,'11111222,11111222,99999999' 
WAVCIS,ioos:station:WAVCIS:CSI06:1,2010-10-03T11:00:00Z,28.8667,-90.4833,10.0,11.62,34.0,,'11111222,11111222,99999999' 
WAVCIS,ioos:station:WAVCIS:CSI06:1,2010-10-03T12:00:00Z,28.8667,-90.4833,10.0,11.85,28.0,,'11111222,11111222,99999999' 
WAVCIS,ioos:station:WAVCIS:CSI06:1,2010-10-03T13:00:00Z,28.8667,-90.4833,10.0,13.11,19.0,,'11111222,11111222,99999999' 
WAVCIS,ioos:station:WAVCIS:CSI06:1,2010-10-03T14:00:00Z,28.8667,-90.4833,10.0,12.12,16.0,,'11111222,11111222,99999999' 
WAVCIS,ioos:station:WAVCIS:CSI06:1,2010-10-03T15:00:00Z,28.8667,-90.4833,10.0,11.35,18.0,,'11111222,11111222,99999999' 
WAVCIS,ioos:station:WAVCIS:CSI06:1,2010-10-03T16:00:00Z,28.8667,-90.4833,10.0,10.48,18.0,,'11111222,11111222,99999999' 
WAVCIS,ioos:station:WAVCIS:CSI06:1,2010-10-03T17:00:00Z,28.8667,-90.4833,10.0,8.58,17.0,,'11111222,11111222,99999999' 
WAVCIS,ioos:station:WAVCIS:CSI06:1,2010-10-03T18:00:00Z,28.8667,-90.4833,10.0,7.82,8.0,,'11111222,11111222,99999999' 
WAVCIS,ioos:station:WAVCIS:CSI06:1,2010-10-03T19:00:00Z,28.8667,-90.4833,10.0,7.32,9.0,,'11111222,11111222,99999999' 
WAVCIS,ioos:station:WAVCIS:CSI06:1,2010-10-03T20:00:00Z,28.8667,-90.4833,10.0,8.18,10.0,,'11111222,11111222,99999999' 
WAVCIS,ioos:station:WAVCIS:CSI06:1,2010-10-03T21:00:00Z,28.8667,-90.4833,10.0,7.97,12.0,,'11111222,11111222,99999999' 
WAVCIS,ioos:station:WAVCIS:CSI06:1,2010-10-03T22:00:00Z,28.8667,-90.4833,10.0,7.21,15.0,,'11111222,11111222,99999999' 
WAVCIS,ioos:station:WAVCIS:CSI06:1,2010-10-03T23:00:00Z,28.8667,-90.4833,10.0,7.83,14.0,,'11111222,11111222,99999999' 
WAVCIS,ioos:station:WAVCIS:CSI06:1,2010-10-04T00:00:00Z,28.8667,-90.4833,10.0,8.97,23.0,,'11111222,11111222,99999999' 
WAVCIS,ioos:station:WAVCIS:CSI06:1,2010-10-04T01:00:00Z,28.8667,-90.4833,10.0,12.32,26.0,,'11111222,11111222,99999999' 
WAVCIS,ioos:station:WAVCIS:CSI06:1,2010-10-04T02:00:00Z,28.8667,-90.4833,10.0,11.83,21.0,,'11111222,11111222,99999999' 
WAVCIS,ioos:station:WAVCIS:CSI06:1,2010-10-04T03:00:00Z,28.8667,-90.4833,10.0,10.5,29.0,,'11111222,11111222,99999999' 
WAVCIS,ioos:station:WAVCIS:CSI06:1,2010-10-04T04:00:00Z,28.8667,-90.4833,10.0,12.24,27.0,,'11111222,11111222,99999999' 
WAVCIS,ioos:station:WAVCIS:CSI06:1,2010-10-04T05:00:00Z,28.8667,-90.4833,10.0,13.68,28.0,,'11111222,11111222,99999999' 
WAVCIS,ioos:station:WAVCIS:CSI06:1,2010-10-04T06:00:00Z,28.8667,-90.4833,10.0,13.62,33.0,,'11111222,11111222,99999999' 
WAVCIS,ioos:station:WAVCIS:CSI06:1,2010-10-04T07:00:00Z,28.8667,-90.4833,10.0,11.61,43.0,,'11111222,11111222,99999999' 
WAVCIS,ioos:station:WAVCIS:CSI06:1,2010-10-04T08:00:00Z,28.8667,-90.4833,10.0,11.55,41.0,,'11111222,11111222,99999999' 
WAVCIS,ioos:station:WAVCIS:CSI06:1,2010-10-04T09:00:00Z,28.8667,-90.4833,10.0,11.54,41.0,,'11111222,11111222,99999999' 
WAVCIS,ioos:station:WAVCIS:CSI06:1,2010-10-04T10:00:00Z,28.8667,-90.4833,10.0,11.02,39.0,,'11111222,11111222,99999999' 
WAVCIS,ioos:station:WAVCIS:CSI06:1,2010-10-04T11:00:00Z,28.8667,-90.4833,10.0,10.63,40.0,,'11111222,11111222,99999999' 
WAVCIS,ioos:station:WAVCIS:CSI06:1,2010-10-04T12:00:00Z,28.8667,-90.4833,10.0,9.99,35.0,,'11111222,11111222,99999999' 
WAVCIS,ioos:station:WAVCIS:CSI06:1,2010-10-04T13:00:00Z,28.8667,-90.4833,10.0,10.04,33.0,,'11111222,11111222,99999999' 
WAVCIS,ioos:station:WAVCIS:CSI06:1,2010-10-04T14:00:00Z,28.8667,-90.4833,10.0,9.61,30.0,,'11111222,11111222,99999999' 
WAVCIS,ioos:station:WAVCIS:CSI06:1,2010-10-04T15:00:00Z,28.8667,-90.4833,10.0,9.06,32.0,,'11111222,11111222,99999999' 
WAVCIS,ioos:station:WAVCIS:CSI06:1,2010-10-04T16:00:00Z,28.8667,-90.4833,10.0,7.1,36.0,,'11111222,11111222,99999999' 
WAVCIS,ioos:station:WAVCIS:CSI06:1,2010-10-04T17:00:00Z,28.8667,-90.4833,10.0,7.03,30.0,,'11111222,11111222,99999999' 
WAVCIS,ioos:station:WAVCIS:CSI06:1,2010-10-04T18:00:00Z,28.8667,-90.4833,10.0,7.04,22.0,,'11111222,11111222,99999999' 
WAVCIS,ioos:station:WAVCIS:CSI06:1,2010-10-04T19:00:00Z,28.8667,-90.4833,10.0,7.46,18.0,,'11111222,11111222,99999999' 
WAVCIS,ioos:station:WAVCIS:CSI06:1,2010-10-04T20:00:00Z,28.8667,-90.4833,10.0,7.58,20.0,,'11111222,11111222,99999999' 
WAVCIS,ioos:station:WAVCIS:CSI06:1,2010-10-04T21:00:00Z,28.8667,-90.4833,10.0,7.63,18.0,,'11111222,11111222,99999999' 
WAVCIS,ioos:station:WAVCIS:CSI06:1,2010-10-04T22:00:00Z,28.8667,-90.4833,10.0,7.35,24.0,,'11111222,11111222,99999999' 
WAVCIS,ioos:station:WAVCIS:CSI06:1,2010-10-04T23:00:00Z,28.8667,-90.4833,10.0,7.45,18.0,,'11111222,11111222,99999999' 
WAVCIS,ioos:station:WAVCIS:CSI06:1,2010-10-05T00:00:00Z,28.8667,-90.4833,10.0,8.91,20.0,,'11111222,11111222,99999999' 
WAVCIS,ioos:station:WAVCIS:CSI06:1,2010-10-05T01:00:00Z,28.8667,-90.4833,10.0,9.75,25.0,,'11111222,11111222,99999999' 
WAVCIS,ioos:station:WAVCIS:CSI06:1,2010-10-05T02:00:00Z,28.8667,-90.4833,10.0,8.75,25.0,,'11111222,11111222,99999999' 
WAVCIS,ioos:station:WAVCIS:CSI06:1,2010-10-05T03:00:00Z,28.8667,-90.4833,10.0,9.12,32.0,,'11111222,11111222,99999999' 
WAVCIS,ioos:station:WAVCIS:CSI06:1,2010-10-05T04:00:00Z,28.8667,-90.4833,10.0,10.61,40.0,,'11111222,11111222,99999999' 
WAVCIS,ioos:station:WAVCIS:CSI06:1,2010-10-05T05:00:00Z,28.8667,-90.4833,10.0,11.46,32.0,,'11111222,11111222,99999999' 
WAVCIS,ioos:station:WAVCIS:CSI06:1,2010-10-05T06:00:00Z,28.8667,-90.4833,10.0,10.67,39.0,,'11111222,11111222,99999999' 
WAVCIS,ioos:station:WAVCIS:CSI06:1,2010-10-05T07:00:00Z,28.8667,-90.4833,10.0,11.11,36.0,,'11111222,11111222,99999999' 
WAVCIS,ioos:station:WAVCIS:CSI06:1,2010-10-05T08:00:00Z,28.8667,-90.4833,10.0,10.51,42.0,,'11111222,11111222,99999999' 
WAVCIS,ioos:station:WAVCIS:CSI06:1,2010-10-05T09:00:00Z,28.8667,-90.4833,10.0,10.99,40.0,,'11111222,11111222,99999999' 
WAVCIS,ioos:station:WAVCIS:CSI06:1,2010-10-05T10:00:00Z,28.8667,-90.4833,10.0,10.41,38.0,,'11111222,11111222,99999999' 
WAVCIS,ioos:station:WAVCIS:CSI06:1,2010-10-05T11:00:00Z,28.8667,-90.4833,10.0,10.16,41.0,,'11111222,11111222,99999999' 
WAVCIS,ioos:station:WAVCIS:CSI06:1,2010-10-05T12:00:00Z,28.8667,-90.4833,10.0,10.54,40.0,,'11111222,11111222,99999999' 
WAVCIS,ioos:station:WAVCIS:CSI06:1,2010-10-05T13:00:00Z,28.8667,-90.4833,10.0,9.9,43.0,,'11111222,11111222,99999999' 
WAVCIS,ioos:station:WAVCIS:CSI06:1,2010-10-05T14:00:00Z,28.8667,-90.4833,10.0,10.39,41.0,,'11111222,11111222,99999999' 
WAVCIS,ioos:station:WAVCIS:CSI06:1,2010-10-05T15:00:00Z,28.8667,-90.4833,10.0,9.97,42.0,,'11111222,11111222,99999999' 
WAVCIS,ioos:station:WAVCIS:CSI06:1,2010-10-05T16:00:00Z,28.8667,-90.4833,10.0,9.84,42.0,,'11111222,11111222,99999999' 
WAVCIS,ioos:station:WAVCIS:CSI06:1,2010-10-05T17:00:00Z,28.8667,-90.4833,10.0,8.99,36.0,,'11111222,11111222,99999999' 
WAVCIS,ioos:station:WAVCIS:CSI06:1,2010-10-05T18:00:00Z,28.8667,-90.4833,10.0,8.13,35.0,,'11111222,11111222,99999999' 
WAVCIS,ioos:station:WAVCIS:CSI06:1,2010-10-05T19:00:00Z,28.8667,-90.4833,10.0,8.62,28.0,,'11111222,11111222,99999999' 
WAVCIS,ioos:station:WAVCIS:CSI06:1,2010-10-05T20:00:00Z,28.8667,-90.4833,10.0,9.0,32.0,,'11111222,11111222,99999999' 
WAVCIS,ioos:station:WAVCIS:CSI06:1,2010-10-05T21:00:00Z,28.8667,-90.4833,10.0,8.44,36.0,,'11111222,11111222,99999999' 
WAVCIS,ioos:station:WAVCIS:CSI06:1,2010-10-05T22:00:00Z,28.8667,-90.4833,10.0,7.63,21.0,,'11111222,11111222,99999999' 
WAVCIS,ioos:station:WAVCIS:CSI06:1,2010-10-05T23:00:00Z,28.8667,-90.4833,10.0,7.24,12.0,,'11111222,11111222,99999999' 
WAVCIS,ioos:station:WAVCIS:CSI06:1,2010-10-06T00:00:00Z,28.8667,-90.4833,10.0,10.43,25.0,,'11111222,11111222,99999999' 
WAVCIS,ioos:station:WAVCIS:CSI06:1,2010-10-06T01:00:00Z,28.8667,-90.4833,10.0,8.42,14.0,,'11111222,11111222,99999999' 
WAVCIS,ioos:station:WAVCIS:CSI06:1,2010-10-06T02:00:00Z,28.8667,-90.4833,10.0,9.5,16.0,,'11111222,11111222,99999999' 
WAVCIS,ioos:station:WAVCIS:CSI06:1,2010-10-06T03:00:00Z,28.8667,-90.4833,10.0,9.18,21.0,,'11111222,11111222,99999999' 
WAVCIS,ioos:station:WAVCIS:CSI06:1,2010-10-06T04:00:00Z,28.8667,-90.4833,10.0,9.43,22.0,,'11111222,11111222,99999999' 
WAVCIS,ioos:station:WAVCIS:CSI06:1,2010-10-06T05:00:00Z,28.8667,-90.4833,10.0,9.6,29.0,,'11111222,11111222,99999999' 
WAVCIS,ioos:station:WAVCIS:CSI06:1,2010-10-06T06:00:00Z,28.8667,-90.4833,10.0,10.13,40.0,,'11111222,11111222,99999999' 
WAVCIS,ioos:station:WAVCIS:CSI06:1,2010-10-06T07:00:00Z,28.8667,-90.4833,10.0,10.31,49.0,,'11111222,11111222,99999999' 
WAVCIS,ioos:station:WAVCIS:CSI06:1,2010-10-06T08:00:00Z,28.8667,-90.4833,10.0,9.92,49.0,,'11111222,11111222,99999999' 
WAVCIS,ioos:station:WAVCIS:CSI06:1,2010-10-06T09:00:00Z,28.8667,-90.4833,10.0,8.93,40.0,,'11111222,11111222,99999999' 
WAVCIS,ioos:station:WAVCIS:CSI06:1,2010-10-06T10:00:00Z,28.8667,-90.4833,10.0,8.2,39.0,,'11111222,11111222,99999999' 
WAVCIS,ioos:station:WAVCIS:CSI06:1,2010-10-06T11:00:00Z,28.8667,-90.4833,10.0,8.66,37.0,,'11111222,11111222,99999999' 
WAVCIS,ioos:station:WAVCIS:CSI06:1,2010-10-06T12:00:00Z,28.8667,-90.4833,10.0,8.71,37.0,,'11111222,11111222,99999999' 
WAVCIS,ioos:station:WAVCIS:CSI06:1,2010-10-06T13:00:00Z,28.8667,-90.4833,10.0,9.27,29.0,,'11111222,11111222,99999999' 
WAVCIS,ioos:station:WAVCIS:CSI06:1,2010-10-06T14:00:00Z,28.8667,-90.4833,10.0,9.82,28.0,,'11111222,11111222,99999999' 
WAVCIS,ioos:station:WAVCIS:CSI06:1,2010-10-06T15:00:00Z,28.8667,-90.4833,10.0,9.22,32.0,,'11111222,11111222,99999999' 
WAVCIS,ioos:station:WAVCIS:CSI06:1,2010-10-06T16:00:00Z,28.8667,-90.4833,10.0,9.01,30.0,,'11111222,11111222,99999999' 
WAVCIS,ioos:station:WAVCIS:CSI06:1,2010-10-06T17:00:00Z,28.8667,-90.4833,10.0,8.92,29.0,,'11111222,11111222,99999999' 
WAVCIS,ioos:station:WAVCIS:CSI06:1,2010-10-06T18:00:00Z,28.8667,-90.4833,10.0,8.91,35.0,,'11111222,11111222,99999999' 
WAVCIS,ioos:station:WAVCIS:CSI06:1,2010-10-06T19:00:00Z,28.8667,-90.4833,10.0,7.79,29.0,,'11111222,11111222,99999999' 
WAVCIS,ioos:station:WAVCIS:CSI06:1,2010-10-06T20:00:00Z,28.8667,-90.4833,10.0,6.911,35.0,,'11111222,11111222,99999999' 
WAVCIS,ioos:station:WAVCIS:CSI06:1,2010-10-06T21:00:00Z,28.8667,-90.4833,10.0,6.681,33.0,,'11111222,11111222,99999999' 
WAVCIS,ioos:station:WAVCIS:CSI06:1,2010-10-06T22:00:00Z,28.8667,-90.4833,10.0,6.456,30.0,,'11111222,11111222,99999999' 
WAVCIS,ioos:station:WAVCIS:CSI06:1,2010-10-06T23:00:00Z,28.8667,-90.4833,10.0,5.612,37.0,,'11111222,11111222,99999999' 
WAVCIS,ioos:station:WAVCIS:CSI06:1,2010-10-07T00:00:00Z,28.8667,-90.4833,10.0,5.091,29.0,,'11111222,11111222,99999999' 
WAVCIS,ioos:station:WAVCIS:CSI06:1,2010-10-07T01:00:00Z,28.8667,-90.4833,10.0,4.589,19.0,,'11111222,11111222,99999999' 
WAVCIS,ioos:station:WAVCIS:CSI06:1,2010-10-07T02:00:00Z,28.8667,-90.4833,10.0,4.349,13.0,,'11111222,11111222,99999999' 
WAVCIS,ioos:station:WAVCIS:CSI06:1,2010-10-07T03:00:00Z,28.8667,-90.4833,10.0,2.658,3.0,,'11111222,11111222,99999999' 
WAVCIS,ioos:station:WAVCIS:CSI06:1,2010-10-07T04:00:00Z,28.8667,-90.4833,10.0,2.579,340.0,,'11111222,11111222,99999999' 
WAVCIS,ioos:station:WAVCIS:CSI06:1,2010-10-07T05:00:00Z,28.8667,-90.4833,10.0,5.302,317.0,,'11111222,11111222,99999999' 
WAVCIS,ioos:station:WAVCIS:CSI06:1,2010-10-07T06:00:00Z,28.8667,-90.4833,10.0,6.626,297.0,,'11111222,11111222,99999999' 
WAVCIS,ioos:station:WAVCIS:CSI06:1,2010-10-07T07:00:00Z,28.8667,-90.4833,10.0,6.89,307.0,,'11111222,11111222,99999999' 
WAVCIS,ioos:station:WAVCIS:CSI06:1,2010-10-07T08:00:00Z,28.8667,-90.4833,10.0,6.835,323.0,,'11111222,11111222,99999999' 
WAVCIS,ioos:station:WAVCIS:CSI06:1,2010-10-07T09:00:00Z,28.8667,-90.4833,10.0,4.241,346.0,,'11111222,11111222,99999999' 
WAVCIS,ioos:station:WAVCIS:CSI06:1,2010-10-07T10:00:00Z,28.8667,-90.4833,10.0,7.27,12.0,,'11111222,11111222,99999999' 
WAVCIS,ioos:station:WAVCIS:CSI06:1,2010-10-07T11:00:00Z,28.8667,-90.4833,10.0,8.44,28.0,,'11111222,11111222,99999999' 
WAVCIS,ioos:station:WAVCIS:CSI06:1,2010-10-07T12:00:00Z,28.8667,-90.4833,10.0,7.01,29.0,,'11111222,11111222,99999999' 
WAVCIS,ioos:station:WAVCIS:CSI06:1,2010-10-07T13:00:00Z,28.8667,-90.4833,10.0,6.823,22.0,,'11111222,11111222,99999999' 
WAVCIS,ioos:station:WAVCIS:CSI06:1,2010-10-07T14:00:00Z,28.8667,-90.4833,10.0,5.394,17.0,,'11111222,11111222,99999999' 
WAVCIS,ioos:station:WAVCIS:CSI06:1,2010-10-07T15:00:00Z,28.8667,-90.4833,10.0,5.651,21.0,,'11111222,11111222,99999999' 
WAVCIS,ioos:station:WAVCIS:CSI06:1,2010-10-07T16:00:00Z,28.8667,-90.4833,10.0,5.383,18.0,,'11111222,11111222,99999999' 
WAVCIS,ioos:station:WAVCIS:CSI06:1,2010-10-07T17:00:00Z,28.8667,-90.4833,10.0,4.468,26.0,,'11111222,11111222,99999999' 
WAVCIS,ioos:station:WAVCIS:CSI06:1,2010-10-07T18:00:00Z,28.8667,-90.4833,10.0,4.21,25.0,,'11111222,11111222,99999999' 
WAVCIS,ioos:station:WAVCIS:CSI06:1,2010-10-07T19:00:00Z,28.8667,-90.4833,10.0,4.047,18.0,,'11111222,11111222,99999999' 
WAVCIS,ioos:station:WAVCIS:CSI06:1,2010-10-07T20:00:00Z,28.8667,-90.4833,10.0,2.716,18.0,,'11111222,11111222,99999999' 
WAVCIS,ioos:station:WAVCIS:CSI06:1,2010-10-07T21:00:00Z,28.8667,-90.4833,10.0,2.558,18.0,,'11111222,11111222,99999999' 
WAVCIS,ioos:station:WAVCIS:CSI06:1,2010-10-07T22:00:00Z,28.8667,-90.4833,10.0,1.109,58.0,,'11111222,11111222,99999999' 
WAVCIS,ioos:station:WAVCIS:CSI06:1,2010-10-07T23:00:00Z,28.8667,-90.4833,10.0,0.025,187.0,,'11111222,11111222,99999999' 
WAVCIS,ioos:station:WAVCIS:CSI06:1,2010-10-08T00:00:00Z,28.8667,-90.4833,10.0,1.705,305.0,,'11111222,11111222,99999999' 
WAVCIS,ioos:station:WAVCIS:CSI06:1,2010-10-08T01:00:00Z,28.8667,-90.4833,10.0,2.351,309.0,,'11111222,11111222,99999999' 
WAVCIS,ioos:station:WAVCIS:CSI06:1,2010-10-08T02:00:00Z,28.8667,-90.4833,10.0,3.419,280.0,,'11111222,11111222,99999999' 
WAVCIS,ioos:station:WAVCIS:CSI06:1,2010-10-08T03:00:00Z,28.8667,-90.4833,10.0,3.949,288.0,,'11111222,11111222,99999999' 
WAVCIS,ioos:station:WAVCIS:CSI06:1,2010-10-08T04:00:00Z,28.8667,-90.4833,10.0,4.229,282.0,,'11111222,11111222,99999999' 
WAVCIS,ioos:station:WAVCIS:CSI06:1,2010-10-08T05:00:00Z,28.8667,-90.4833,10.0,4.306,303.0,,'11111222,11111222,99999999' 
WAVCIS,ioos:station:WAVCIS:CSI06:1,2010-10-08T06:00:00Z,28.8667,-90.4833,10.0,5.178,326.0,,'11111222,11111222,99999999' 
WAVCIS,ioos:station:WAVCIS:CSI06:1,2010-10-08T07:00:00Z,28.8667,-90.4833,10.0,5.002,331.0,,'11111222,11111222,99999999' 
WAVCIS,ioos:station:WAVCIS:CSI06:1,2010-10-08T08:00:00Z,28.8667,-90.4833,10.0,5.56,322.0,,'11111222,11111222,99999999' 
WAVCIS,ioos:station:WAVCIS:CSI06:1,2010-10-08T09:00:00Z,28.8667,-90.4833,10.0,6.258,321.0,,'11111222,11111222,99999999' 
WAVCIS,ioos:station:WAVCIS:CSI06:1,2010-10-08T10:00:00Z,28.8667,-90.4833,10.0,7.06,326.0,,'11111222,11111222,99999999' 
WAVCIS,ioos:station:WAVCIS:CSI06:1,2010-10-08T11:00:00Z,28.8667,-90.4833,10.0,7.94,328.0,,'11111222,11111222,99999999' 
WAVCIS,ioos:station:WAVCIS:CSI06:1,2010-10-08T12:00:00Z,28.8667,-90.4833,10.0,6.841,334.0,,'11111222,11111222,99999999' 
WAVCIS,ioos:station:WAVCIS:CSI06:1,2010-10-08T13:00:00Z,28.8667,-90.4833,10.0,5.208,336.0,,'11111222,11111222,99999999' 
WAVCIS,ioos:station:WAVCIS:CSI06:1,2010-10-08T14:00:00Z,28.8667,-90.4833,10.0,4.978,337.0,,'11111222,11111222,99999999' 
WAVCIS,ioos:station:WAVCIS:CSI06:1,2010-10-08T15:00:00Z,28.8667,-90.4833,10.0,4.433,339.0,,'11111222,11111222,99999999' 
WAVCIS,ioos:station:WAVCIS:CSI06:1,2010-10-08T16:00:00Z,28.8667,-90.4833,10.0,2.945,344.0,,'11111222,11111222,99999999' 
WAVCIS,ioos:station:WAVCIS:CSI06:1,2010-10-08T17:00:00Z,28.8667,-90.4833,10.0,2.336,356.0,,'11111222,11111222,99999999' 
WAVCIS,ioos:station:WAVCIS:CSI06:1,2010-10-08T18:00:00Z,28.8667,-90.4833,10.0,2.212,357.0,,'11111222,11111222,99999999' 
WAVCIS,ioos:station:WAVCIS:CSI06:1,2010-10-08T19:00:00Z,28.8667,-90.4833,10.0,2.076,4.0,,'11111222,11111222,99999999' 
WAVCIS,ioos:station:WAVCIS:CSI06:1,2010-10-08T20:00:00Z,28.8667,-90.4833,10.0,1.339,343.0,,'11111222,11111222,99999999' 
WAVCIS,ioos:station:WAVCIS:CSI06:1,2010-10-08T21:00:00Z,28.8667,-90.4833,10.0,1.351,318.0,,'11111222,11111222,99999999' 
WAVCIS,ioos:station:WAVCIS:CSI06:1,2010-10-08T22:00:00Z,28.8667,-90.4833,10.0,1.047,303.0,,'11111222,11111222,99999999' 
WAVCIS,ioos:station:WAVCIS:CSI06:1,2010-10-08T23:00:00Z,28.8667,-90.4833,10.0,1.479,239.0,,'11111222,11111222,99999999' 
WAVCIS,ioos:station:WAVCIS:CSI06:1,2010-10-09T00:00:00Z,28.8667,-90.4833,10.0,1.915,249.0,,'11111222,11111222,99999999' 
WAVCIS,ioos:station:WAVCIS:CSI06:1,2010-10-09T01:00:00Z,28.8667,-90.4833,10.0,2.324,260.0,,'11111222,11111222,99999999' 
WAVCIS,ioos:station:WAVCIS:CSI06:1,2010-10-09T02:00:00Z,28.8667,-90.4833,10.0,4.03,283.0,,'11111222,11111222,99999999' 
WAVCIS,ioos:station:WAVCIS:CSI06:1,2010-10-09T03:00:00Z,28.8667,-90.4833,10.0,3.298,278.0,,'11111222,11111222,99999999' 
WAVCIS,ioos:station:WAVCIS:CSI06:1,2010-10-09T04:00:00Z,28.8667,-90.4833,10.0,2.989,265.0,,'11111222,11111222,99999999' 
WAVCIS,ioos:station:WAVCIS:CSI06:1,2010-10-09T05:00:00Z,28.8667,-90.4833,10.0,3.345,272.0,,'11111222,11111222,99999999' 
WAVCIS,ioos:station:WAVCIS:CSI06:1,2010-10-09T06:00:00Z,28.8667,-90.4833,10.0,3.998,277.0,,'11111222,11111222,99999999' 